TimeMST,TemperatureF,Dew PointF,Humidity,Sea Level PressureIn,VisibilityMPH,Wind Direction,Wind SpeedMPH,Gust SpeedMPH,PrecipitationIn,Events,Conditions,WindDirDegrees,DateUTC
12:56 AM,37.9,33.1,83,29.75,-9999.0,West,12.7,-,N/A,,Unknown,270,2012-11-22 07:56:00
1:56 AM,44.1,35.1,71,29.75,-9999.0,WNW,20.7,-,N/A,,Unknown,300,2012-11-22 08:56:00
2:56 AM,44.1,32.0,63,29.76,-9999.0,NW,32.2,40.3,N/A,,Unknown,310,2012-11-22 09:56:00
3:56 AM,41.0,26.1,55,29.82,-9999.0,NW,29.9,35.7,N/A,,Unknown,310,2012-11-22 10:56:00
4:56 AM,39.0,25.0,57,29.87,-9999.0,WNW,27.6,34.5,N/A,,Unknown,300,2012-11-22 11:56:00
5:56 AM,37.9,27.0,65,29.92,-9999.0,WNW,18.4,-,N/A,,Unknown,300,2012-11-22 12:56:00
6:56 AM,34.0,27.0,75,29.96,-9999.0,WNW,16.1,-,N/A,,Unknown,290,2012-11-22 13:56:00
7:56 AM,32.0,27.0,82,29.99,-9999.0,WNW,16.1,-,N/A,,Unknown,290,2012-11-22 14:56:00
8:56 AM,37.9,28.0,68,30.01,-9999.0,WNW,18.4,-,N/A,,Unknown,290,2012-11-22 15:56:00
9:56 AM,37.9,28.9,70,30.04,-9999.0,NNW,18.4,-,N/A,,Unknown,330,2012-11-22 16:56:00
10:56 AM,37.9,26.1,62,30.07,-9999.0,NW,28.8,38.0,N/A,,Unknown,310,2012-11-22 17:56:00
11:56 AM,37.9,27.0,65,30.10,-9999.0,WNW,26.5,33.4,N/A,,Unknown,300,2012-11-22 18:56:00
12:56 PM,37.0,25.0,62,30.13,-9999.0,WNW,36.8,46.0,N/A,,Unknown,300,2012-11-22 19:56:00
1:56 PM,27.0,19.9,75,30.18,-9999.0,NW,33.4,44.9,N/A,,Unknown,320,2012-11-22 20:56:00
2:56 PM,24.1,18.0,77,30.25,-9999.0,NW,35.7,42.6,N/A,,Unknown,310,2012-11-22 21:56:00
3:56 PM,19.9,9.0,62,30.31,-9999.0,NW,34.5,43.7,N/A,,Unknown,310,2012-11-22 22:56:00
4:56 PM,19.0,9.0,65,30.37,-9999.0,NW,35.7,46.0,N/A,,Unknown,310,2012-11-22 23:56:00
5:56 PM,17.1,9.0,71,30.40,-9999.0,NW,26.5,34.5,N/A,,Unknown,320,2012-11-23 00:56:00
6:56 PM,17.1,9.0,71,30.44,-9999.0,NW,26.5,-,N/A,,Unknown,310,2012-11-23 01:56:00
7:56 PM,15.1,8.1,74,30.48,-9999.0,NW,23.0,31.1,N/A,,Unknown,320,2012-11-23 02:56:00
8:56 PM,15.1,8.1,74,30.49,-9999.0,NW,24.2,28.8,N/A,,Unknown,320,2012-11-23 03:56:00
9:56 PM,12.9,8.1,81,30.51,-9999.0,WNW,24.2,-,N/A,,Unknown,300,2012-11-23 04:56:00
10:56 PM,12.0,7.0,80,30.53,-9999.0,WNW,10.4,-,N/A,,Unknown,290,2012-11-23 05:56:00
11:56 PM,10.9,6.1,81,30.53,-9999.0,WNW,10.4,-,N/A,,Unknown,290,2012-11-23 06:56:00